< < Back
Terminal Aerodrome Forecast


Current Version              Previous Versions:   1  2  3  4  5  6  7  8  9  

Terminal Aerodrome Forecast

013
FTUS42 KGSP 010211 AAB
TAFHKY
TAF AMD
KHKY 010211Z 0102/0124 26013G18KT P6SM SKC
     FM010500 31005KT P6SM FEW050
     FM011000 01004KT P6SM SKC
     FM012000 15003KT P6SM FEW060=

Latest METAR

827
SAUS70 KWBC 012100 RRS
MTRHKY
METAR KHKY 012053Z AUTO 00000KT 10SM CLR 22/M04 A3006 RMK AO2 SLP161
T02171044 56007


USA.gov is the U.S. government's official web portal to all federal, state and local government web resources and services.